Temperature
8 7 6 6 7 7 7 7 7 7 8 7 6 6 6 6 5 5 5 4 4 4 4 4 4 4 4 5 5 5 5 6 6 6 6 7 7 7 7 7 8 8 8 8
7 6 6 7 7 7 7 6 6 6 7 6 6 6 5 5 4 4 4 4 4 4 3 3 3 4 4 4 4 5 5 5 5 6 6 6 6 6 6 7 7 7 7 7
6 6 7 7 6 6 6 6 5 5 6 6 6 5 5 5 4 4 3 3 3 3 3 3 3 3 3 3 4 4 4 5 5 5 5 5 5 6 6 6 6 6 7 7
6 6 6 6 5 5 5 6 6 5 4 4 5 4 5 4 3 3 3 2 2 2 2 2 2 2 2 3 3 3 4 4 4 5 5 5 5 5 5 5 6 6 6 6
5 5 5 5 5 5 4 5 5 5 4 4 4 4 4 4 3 2 2 2 1 1 1 1 1 1 2 2 2 3 3 3 4 4 4 4 4 5 5 5 5 5 6 6
5 5 5 4 4 5 5 4 5 4 4 3 4 4 4 3 3 2 2 1 1 1 1 1 1 1 1 1 2 2 2 2 3 3 3 4 4 4 4 4 5 5 5 5
5 5 4 4 4 4 4 3 3 3 3 4 5 4 3 3 2 2 1 1 0 0 0 0 0 0 0 1 1 1 2 2 2 2 3 3 4 4 4 4 4 4 5 5
4 4 4 3 3 2 3 3 2 3 3 4 4 3 2 2 2 1 1 0 -0 -0 -0 -0 -0 -0 -0 0 0 1 1 1 1 2 2 2 3 3 3 4 4 4 4 4
3 3 4 3 3 3 3 2 3 2 2 2 3 3 2 2 1 0 0 -0 -1 -1 -1 -1 -0 -0 -0 -0 -0 0 0 0 1 1 1 1 2 2 3 3 3 3 4 4
2 2 3 3 3 2 2 2 2 2 2 2 3 4 2 0 -0 -0 -1 -1 -1 -1 -1 -1 -1 -1 -1 -1 -0 -0 -0 -0 0 1 1 1 1 2 2 2 2 3 3 3
2 1 2 2 1 1 1 1 1 2 2 2 2 2 1 0 -0 -1 -1 -1 -1 -1 -1 -1 -1 -1 -1 -1 -1 -1 -1 -1 -0 -0 0 0 1 1 1 1 2 2 2 3
1 1 1 2 1 1 1 0 0 0 1 1 1 1 1 0 -0 -0 -1 -1 -1 -2 -2 -2 -2 -2 -1 -1 -1 -1 -1 -1 -1 -1 -0 -0 0 0 1 1 1 1 2 2
0 -0 1 2 1 0 -0 -0 -1 -1 -1 0 0 1 0 -0 -0 -0 -1 -1 -2 -2 -2 -2 -2 -2 -2 -2 -2 -2 -2 -2 -1 -1 -1 -1 -0 -0 0 0 1 1 1 1
0 -1 -0 1 1 -0 -1 -1 -1 -2 -1 -1 -0 -0 -0 -1 -2 -1 -1 -2 -2 -2 -2 -2 -2 -2 -2 -2 -2 -2 -2 -2 -2 -2 -1 -1 -1 -1 -0 -0 0 0 1 1
-1 -1 -1 -1 0 -0 -1 -1 -2 -2 -2 -2 -1 -1 -1 -2 -2 -2 -2 -2 -2 -3 -3 -3 -3 -3 -3 -2 -2 -2 -2 -2 -2 -2 -2 -1 -1 -1 -1 -1 -1 -0 -0 0
-1 -2 -1 -1 -0 -0 -1 -1 -1 -2 -2 -2 -2 -2 -2 -2 -2 -2 -2 -3 -3 -3 -3 -3 -3 -3 -3 -3 -3 -3 -3 -3 -3 -2 -2 -2 -2 -2 -2 -1 -1 -1 -1 -1
-2 -2 -1 -0 -0 -1 -1 -2 -2 -3 -3 -3 -3 -3 -3 -3 -3 -3 -3 -3 -3 -3 -4 -4 -4 -4 -3 -3 -3 -3 -3 -3 -3 -3 -3 -2 -2 -2 -2 -2 -2 -2 -1 -1
-3 -2 -2 -1 -1 -1 -1 -2 -2 -3 -3 -4 -4 -3 -3 -3 -3 -3 -3 -4 -4 -4 -4 -4 -4 -4 -4 -4 -4 -4 -4 -3 -3 -3 -3 -3 -3 -3 -2 -2 -2 -2 -2 -2
-3 -3 -2 -1 -1 -1 -1 -3 -4 -4 -4 -3 -4 -4 -4 -4 -4 -4 -3 -4 -4 -4 -4 -4 -4 -4 -4 -4 -4 -4 -4 -4 -4 -4 -4 -3 -3 -3 -3 -3 -2 -2 -2 -2
-3 -4 -3 -2 -2 -1 -1 -4 -3 -3 -3 -3 -3 -4 -4 -5 -5 -5 -4 -4 -5 -5 -5 -5 -5 -5 -5 -5 -5 -5 -5 -5 -5 -5 -4 -4 -4 -4 -3 -3 -3 -3 -3 -3
-4 -4 -4 -3 -2 -2 -3 -4 -3 -3 -3 -3 -3 -4 -4 -5 -5 -5 -5 -5 -5 -5 -5 -5 -5 -5 -5 -5 -5 -5 -5 -5 -5 -5 -5 -5 -4 -4 -4 -4 -4 -3 -3 -3
-4 -4 -3 -3 -3 -2 -5 -5 -5 -4 -4 -4 -4 -4 -5 -5 -5 -5 -5 -5 -5 -5 -5 -6 -5 -6 -6 -6 -6 -6 -6 -6 -6 -6 -5 -5 -5 -5 -5 -4 -4 -4 -4 -4
-4 -4 -4 -3 -3 -3 -4 -4 -4 -4 -4 -4 -5 -5 -5 -5 -6 -6 -6 -6 -6 -6 -6 -6 -6 -6 -6 -6 -6 -6 -6 -6 -6 -6 -6 -6 -6 -5 -5 -5 -5 -5 -5 -5
-4 -4 -4 -4 -4 -4 -4 -4 -4 -4 -5 -5 -5 -5 -6 -6 -6 -6 -6 -6 -6 -6 -6 -6 -6 -6 -6 -6 -7 -7 -7 -7 -6 -6 -6 -6 -6 -6 -6 -5 -5 -5 -5 -5
-4 -5 -5 -5 -5 -4 -4 -4 -4 -5 -5 -5 -5 -6 -6 -6 -6 -7 -7 -7 -7 -7 -7 -7 -7 -7 -7 -7 -7 -7 -7 -7 -7 -7 -7 -7 -7 -6 -6 -6 -6 -6 -6 -6
-5 -6 -6 -5 -5 -6 -5 -5 -5 -5 -5 -6 -6 -6 -6 -6 -7 -7 -7 -7 -7 -7 -7 -7 -7 -7 -7 -7 -8 -8 -7 -7 -7 -7 -7 -7 -7 -7 -7 -6 -6 -6 -6 -6
Wind_Speed
1 1 2 3 2 4 6 6 8 6 3 4 6 7 5 2 2 2 1 1 1 1 1 2 1 2 2 3 3 2 3 2 1 1 1 1 1 2 2 3 4 4 3 3
0 1 3 3 3 5 5 6 7 5 3 4 7 8 4 3 3 2 0 1 1 2 2 3 3 2 2 2 2 2 2 2 1 1 1 1 1 1 1 2 3 3 3 3
1 3 4 4 5 6 5 4 5 7 6 5 6 6 3 1 1 1 1 1 1 1 1 2 3 3 2 1 2 2 2 2 2 1 1 1 2 1 1 1 1 2 2 2
1 2 4 4 3 5 5 4 6 7 5 4 3 4 4 1 0 1 1 1 2 2 2 3 3 4 3 3 3 2 2 2 2 1 1 3 2 2 1 1 1 1 2 2
1 3 4 4 5 5 5 7 8 7 6 5 4 4 4 2 2 2 1 1 2 2 3 3 4 3 3 3 3 3 3 2 2 1 1 2 2 1 0 1 2 1 1 2
1 1 2 4 5 3 6 6 6 4 3 4 5 4 4 1 2 1 1 1 1 2 3 4 4 4 4 4 4 4 4 3 2 1 1 2 2 1 1 1 1 1 1 1
2 1 2 2 4 3 4 4 3 2 2 4 2 3 3 1 3 2 1 1 2 2 3 3 3 4 4 4 4 4 4 4 3 2 1 1 2 2 2 1 1 1 1 0
5 3 2 3 2 3 4 2 0 3 4 4 3 3 2 3 5 5 3 2 3 3 3 3 3 3 3 4 4 4 4 3 3 3 2 1 0 1 1 1 1 2 2 1
4 4 2 2 3 3 3 1 1 2 5 4 4 3 1 4 5 5 4 3 3 3 3 3 3 3 3 3 3 3 3 3 3 3 2 1 1 0 0 1 1 1 1 1
4 5 3 1 2 2 2 3 2 2 3 4 5 3 2 3 4 4 3 2 3 3 3 4 3 3 3 3 2 2 2 2 2 3 3 2 1 1 0 1 1 1 1 1
3 3 3 1 1 2 1 1 2 3 3 3 4 3 2 2 2 3 3 3 3 3 3 3 3 3 2 2 2 2 3 2 2 2 2 2 2 1 1 1 1 2 2 1
2 2 4 3 1 0 0 1 1 2 4 3 4 5 1 3 3 3 3 4 4 4 3 3 3 3 3 3 3 3 2 2 2 1 1 2 1 1 1 1 1 2 2 2
2 2 4 3 1 1 1 2 2 3 3 4 4 6 1 4 4 4 4 4 4 4 4 3 3 3 3 3 3 3 2 2 1 1 1 2 1 1 1 1 1 1 2 1
1 2 4 6 6 3 5 5 3 3 4 6 7 10 8 6 6 6 5 4 4 4 4 4 4 4 4 3 2 2 2 2 2 1 1 2 2 2 2 1 1 1 1 1
1 4 6 10 9 8 8 9 6 7 7 8 10 10 9 8 6 6 5 5 5 5 5 5 5 5 4 4 3 2 3 2 2 1 1 2 2 2 1 1 1 1 1 1
2 4 4 8 8 8 10 10 9 9 8 9 11 11 7 6 5 5 5 5 6 6 5 5 5 5 5 5 4 4 3 3 2 2 2 2 2 2 1 1 1 1 1 1
2 3 4 6 4 5 8 7 7 5 6 5 7 7 5 6 6 5 5 5 6 6 5 6 6 5 5 5 5 4 3 3 2 2 2 2 2 2 1 1 1 1 1 1
3 4 3 5 5 6 6 1 3 4 5 4 5 5 4 4 6 5 4 5 6 5 5 5 5 6 6 5 5 4 4 3 2 2 2 2 2 2 2 1 1 1 1 1
3 3 3 3 5 8 3 1 1 2 6 4 5 5 4 4 5 4 3 4 4 4 4 4 4 5 5 6 5 3 4 3 3 3 2 2 2 2 2 2 2 2 2 2
2 3 3 4 4 6 3 1 0 1 4 2 1 3 3 3 3 3 4 4 5 5 4 4 5 5 5 5 5 3 3 3 4 4 3 3 2 2 2 2 2 2 2 2
2 3 5 6 6 6 1 1 1 1 4 3 1 2 2 2 3 3 4 4 4 4 5 5 4 4 4 4 4 3 3 4 4 3 3 3 2 2 2 2 2 2 2 2
5 4 4 4 5 6 2 3 3 4 3 2 2 2 3 3 4 4 4 5 4 5 5 5 4 5 5 4 3 4 4 4 4 3 3 3 3 3 3 2 2 2 2 2
5 5 4 6 6 1 4 3 2 1 2 2 2 3 3 4 4 4 5 5 4 4 5 4 4 5 5 4 3 4 5 4 3 3 3 3 3 3 2 2 2 2 2 2
3 1 2 5 5 2 3 2 1 1 3 4 3 3 3 4 4 5 5 5 4 4 4 4 4 5 6 5 4 4 4 3 3 3 4 3 3 3 2 2 2 2 2 2
2 3 3 6 5 4 2 2 2 3 3 3 3 3 3 3 4 5 5 5 4 5 5 4 4 5 6 5 5 4 4 3 3 3 4 3 3 2 2 2 2 2 2 3
2 3 4 5 2 2 5 4 3 3 3 3 3 3 3 3 4 4 4 4 4 4 5 5 5 5 5 5 5 4 3 3 3 3 3 3 2 2 2 2 2 3 3 4
Wind_Direction
74 19 348 332 324 293 292 287 286 292 298 289 265 271 272 276 256 242 250 268 14 4 15 41 47 32 23 17 13 4 9 354 32 94 99 120 130 115 89 74 91 91 92 108
292 346 329 333 325 303 287 285 290 298 310 294 275 278 274 252 229 228 253 355 352 3 28 27 27 48 56 27 3 2 9 353 302 198 156 164 147 153 120 75 82 91 87 105
348 329 335 328 328 320 290 277 293 297 301 265 270 274 229 204 134 40 36 29 35 46 29 21 24 23 27 21 360 358 0 2 340 343 85 107 107 107 96 102 107 76 93 95
322 338 341 327 321 313 293 311 299 293 295 275 262 280 265 224 285 349 332 2 37 59 46 34 27 20 16 9 9 7 3 3 351 31 133 148 137 142 190 184 144 71 82 83
324 347 339 327 318 311 290 308 286 275 268 281 252 251 277 178 261 270 295 2 34 56 55 39 32 28 23 22 15 3 359 352 351 351 177 149 130 138 117 134 122 118 68 63
234 352 358 327 316 302 304 298 275 252 248 264 239 227 282 276 289 299 327 21 33 50 48 37 30 27 26 30 19 7 1 346 358 1 114 134 140 135 126 102 129 121 134 56
319 107 62 355 321 325 332 339 338 315 244 252 213 231 264 14 19 46 75 31 36 41 38 26 15 19 21 24 16 8 358 1 359 8 33 113 144 154 163 172 163 151 168 164
329 318 49 21 354 318 312 334 328 283 284 303 292 253 257 49 39 34 42 58 46 26 14 9 3 16 12 11 9 10 355 354 359 2 4 359 353 160 168 174 177 183 202 197
335 307 7 7 343 340 323 303 292 279 279 276 263 244 240 25 25 15 15 29 10 351 355 354 356 3 3 3 1 2 354 355 1 3 3 345 336 43 178 157 160 184 198 219
321 296 295 353 352 345 315 319 323 282 300 287 281 270 307 335 340 348 355 343 327 333 344 343 349 350 352 352 348 358 3 351 350 356 354 355 344 353 290 185 206 214 209 210
307 279 288 294 243 277 322 322 297 269 260 279 294 285 16 13 360 344 337 331 325 328 334 337 332 327 332 341 346 359 0 357 354 358 349 354 342 325 303 254 239 234 217 181
339 293 276 260 227 357 32 291 261 250 274 262 275 277 3 40 35 3 341 335 337 331 330 323 321 324 330 344 352 356 352 344 334 335 330 319 315 315 298 303 281 265 231 209
334 295 300 299 294 6 328 289 286 267 277 268 267 273 342 12 5 354 338 333 333 330 329 329 331 338 334 339 342 338 334 331 327 333 321 315 313 296 288 294 285 266 238 210
321 247 233 255 276 290 284 277 263 242 251 270 257 274 295 313 321 325 325 324 320 323 328 333 335 335 335 330 329 327 324 326 331 329 314 302 294 288 267 266 270 255 233 209
238 258 255 266 272 269 265 270 258 240 246 256 274 280 287 301 302 305 313 325 333 330 331 333 334 333 336 333 329 327 322 321 323 319 315 303 301 300 293 280 271 263 270 248
239 267 282 275 261 261 270 267 254 250 253 258 274 280 291 311 322 319 323 329 329 326 324 333 335 336 334 331 328 325 323 323 327 314 307 311 313 307 291 268 262 273 272 239
240 258 281 279 275 289 272 250 227 233 238 233 253 269 318 329 322 316 317 322 323 325 334 337 335 329 327 328 328 323 316 323 326 321 326 325 319 315 312 318 327 299 290 269
235 255 262 284 310 260 248 181 194 231 247 235 264 291 305 305 312 314 320 319 321 326 332 334 337 337 336 333 331 330 333 332 317 317 320 321 326 327 329 334 320 313 310 279
205 219 257 273 277 273 258 164 159 232 279 247 255 286 313 338 328 310 338 350 333 327 330 330 329 326 329 331 330 332 331 333 324 315 309 316 323 315 320 320 314 321 323 307
204 209 239 251 264 267 263 121 64 66 280 278 274 287 307 349 327 301 349 350 336 337 339 335 335 337 337 332 335 334 325 328 321 318 318 322 317 305 305 306 313 317 309 296
199 220 228 244 255 265 252 199 104 174 274 335 325 292 298 284 266 290 331 338 336 339 339 338 336 331 321 322 332 327 320 309 304 314 322 323 318 305 297 304 311 310 309 309
192 201 212 213 234 257 129 132 187 242 312 331 331 318 303 292 305 317 324 326 334 337 336 335 334 325 321 324 329 320 310 305 313 320 320 317 317 307 311 314 311 307 299 293
203 200 207 211 225 233 165 194 234 299 306 301 307 307 296 295 298 309 314 318 325 327 326 330 327 322 323 324 317 305 304 314 320 319 312 311 314 310 309 303 301 300 291 278
212 168 243 267 267 266 220 244 294 305 285 288 283 286 290 291 296 306 311 314 321 324 323 326 324 321 320 322 319 302 306 316 317 309 307 307 307 310 313 307 298 289 275 271
229 178 239 259 278 307 260 250 274 297 299 300 300 285 276 278 290 296 304 313 320 322 325 325 320 314 311 316 319 317 316 313 309 304 303 307 308 305 308 302 290 284 280 269
191 192 211 245 255 254 275 281 285 281 282 290 304 306 302 280 287 299 304 310 313 316 320 321 320 321 321 322 319 320 321 316 304 305 308 305 304 302 301 300 313 313 296 309
Height
1510 1513 1515 1514 1513 1513 1511 1511 1510 1507 1504 1505 1505 1503 1502 1502 1502 1502 1502 1502 1502 1502 1502 1502 1503 1503 1503 1504 1505 1505 1506 1507 1508 1509 1510 1511 1513 1515 1517 1519 1521 1524 1526 1528
1512 1515 1515 1513 1513 1512 1511 1511 1510 1507 1504 1505 1504 1501 1500 1500 1501 1500 1500 1500 1500 1500 1501 1501 1501 1501 1502 1502 1503 1503 1504 1505 1506 1507 1508 1509 1511 1513 1515 1517 1519 1521 1524 1526
1516 1517 1514 1513 1513 1513 1510 1512 1511 1510 1507 1503 1504 1501 1498 1498 1498 1499 1500 1500 1499 1499 1499 1500 1500 1500 1500 1500 1501 1501 1502 1502 1504 1506 1506 1508 1510 1511 1513 1515 1517 1519 1522 1524
1516 1516 1516 1514 1515 1515 1513 1510 1510 1509 1511 1509 1505 1509 1497 1497 1498 1498 1499 1499 1498 1499 1499 1499 1499 1499 1499 1499 1499 1499 1500 1501 1502 1503 1504 1506 1506 1508 1510 1513 1515 1518 1520 1522
1519 1517 1517 1517 1516 1515 1514 1510 1509 1508 1510 1510 1505 1508 1501 1497 1498 1498 1499 1499 1498 1498 1498 1498 1498 1498 1497 1497 1498 1497 1498 1499 1500 1501 1501 1503 1504 1506 1509 1510 1512 1515 1517 1519
1519 1518 1518 1519 1517 1515 1513 1510 1507 1507 1509 1513 1503 1505 1501 1499 1497 1498 1498 1498 1498 1498 1497 1497 1497 1497 1497 1496 1496 1496 1496 1497 1498 1498 1499 1500 1502 1504 1506 1508 1509 1512 1514 1516
1519 1518 1519 1519 1518 1516 1516 1516 1516 1514 1512 1506 1499 1502 1504 1500 1498 1497 1498 1498 1497 1497 1497 1496 1496 1496 1495 1495 1495 1495 1495 1494 1495 1496 1496 1498 1500 1502 1503 1505 1507 1509 1511 1513
1525 1523 1522 1522 1523 1523 1519 1520 1526 1525 1515 1506 1501 1504 1503 1500 1498 1497 1497 1497 1497 1497 1496 1496 1495 1495 1494 1494 1494 1493 1493 1493 1493 1493 1494 1496 1497 1499 1501 1503 1504 1506 1508 1510
1532 1527 1523 1522 1522 1523 1521 1522 1522 1525 1518 1517 1506 1500 1500 1500 1499 1499 1498 1498 1498 1497 1497 1496 1495 1495 1494 1493 1492 1492 1491 1491 1491 1492 1493 1494 1495 1496 1498 1500 1502 1504 1505 1507
1534 1534 1525 1523 1523 1524 1524 1523 1524 1524 1522 1515 1503 1498 1503 1504 1503 1500 1499 1499 1498 1497 1496 1495 1494 1494 1493 1492 1491 1490 1490 1490 1489 1490 1491 1491 1492 1493 1495 1497 1499 1501 1503 1504
1534 1536 1528 1526 1528 1527 1527 1526 1526 1523 1520 1518 1513 1509 1504 1504 1503 1502 1500 1499 1498 1497 1495 1494 1494 1493 1492 1491 1490 1489 1488 1488 1488 1488 1489 1490 1491 1492 1493 1494 1496 1498 1499 1500
1535 1536 1532 1526 1525 1524 1525 1527 1529 1530 1524 1519 1517 1514 1504 1502 1502 1501 1500 1499 1498 1497 1495 1494 1493 1492 1490 1489 1488 1487 1487 1487 1487 1487 1487 1488 1488 1489 1490 1491 1493 1494 1496 1498
1537 1538 1533 1525 1529 1529 1528 1527 1529 1530 1527 1522 1518 1513 1503 1502 1501 1501 1500 1499 1497 1496 1494 1493 1492 1490 1489 1487 1487 1486 1486 1485 1485 1485 1485 1485 1486 1486 1487 1488 1490 1491 1493 1494
1537 1539 1537 1532 1527 1528 1529 1527 1528 1530 1528 1522 1516 1510 1504 1503 1502 1500 1499 1498 1497 1495 1493 1492 1490 1488 1487 1486 1485 1484 1484 1484 1483 1483 1483 1483 1483 1484 1485 1486 1487 1488 1490 1490
1536 1536 1533 1529 1525 1525 1525 1524 1525 1526 1524 1521 1513 1509 1504 1503 1502 1500 1499 1497 1496 1494 1492 1491 1489 1487 1486 1485 1483 1482 1482 1482 1481 1481 1481 1481 1481 1482 1483 1483 1485 1486 1487 1488
1535 1535 1531 1527 1521 1521 1520 1517 1518 1519 1518 1516 1512 1509 1503 1502 1500 1499 1497 1496 1494 1492 1491 1490 1488 1486 1485 1483 1482 1481 1480 1479 1479 1478 1478 1478 1479 1479 1480 1481 1482 1483 1483 1484
1534 1535 1532 1523 1519 1519 1517 1513 1514 1514 1512 1513 1512 1508 1503 1501 1499 1498 1497 1495 1494 1492 1490 1489 1487 1485 1483 1482 1481 1480 1479 1478 1477 1476 1476 1476 1476 1477 1477 1478 1479 1479 1480 1481
1533 1533 1531 1525 1522 1519 1510 1507 1507 1509 1508 1508 1506 1504 1502 1501 1499 1497 1496 1494 1492 1491 1489 1487 1485 1484 1482 1480 1479 1478 1477 1476 1475 1474 1474 1474 1474 1474 1474 1475 1475 1476 1477 1478
1529 1532 1530 1526 1523 1511 1507 1508 1508 1509 1507 1503 1503 1502 1501 1499 1497 1495 1494 1493 1492 1490 1488 1486 1484 1482 1480 1478 1477 1476 1475 1474 1473 1472 1471 1471 1471 1471 1471 1472 1473 1473 1474 1475
1529 1531 1532 1525 1523 1515 1506 1508 1506 1508 1506 1500 1500 1500 1499 1499 1499 1496 1493 1492 1491 1489 1487 1485 1483 1481 1479 1477 1475 1474 1472 1471 1470 1470 1469 1469 1469 1469 1469 1469 1470 1471 1471 1472
1530 1530 1529 1525 1521 1510 1508 1506 1506 1511 1505 1500 1499 1499 1498 1498 1498 1496 1493 1491 1489 1487 1485 1483 1481 1479 1477 1476 1474 1472 1470 1469 1469 1468 1467 1467 1467 1467 1466 1467 1467 1468 1469 1469
1523 1524 1523 1520 1519 1512 1506 1505 1507 1505 1501 1499 1498 1498 1497 1496 1494 1493 1491 1489 1488 1485 1483 1481 1479 1477 1475 1474 1472 1469 1468 1467 1466 1465 1465 1464 1464 1464 1464 1464 1464 1465 1466 1466
1515 1515 1514 1513 1509 1503 1502 1501 1501 1500 1499 1498 1497 1496 1495 1494 1492 1491 1489 1488 1486 1484 1482 1480 1477 1475 1473 1471 1470 1468 1466 1465 1464 1463 1462 1462 1462 1462 1462 1461 1461 1462 1463 1463
1510 1510 1510 1508 1501 1500 1500 1499 1498 1498 1497 1496 1495 1494 1493 1491 1490 1488 1487 1485 1483 1481 1479 1477 1475 1472 1470 1469 1467 1466 1464 1463 1462 1461 1460 1460 1459 1459 1459 1459 1459 1459 1460 1459
1506 1508 1508 1505 1500 1498 1497 1496 1496 1495 1494 1493 1492 1491 1490 1489 1487 1486 1484 1482 1481 1479 1477 1475 1472 1470 1468 1466 1465 1463 1462 1461 1460 1459 1458 1457 1457 1457 1456 1456 1457 1457 1457 1458
1504 1505 1506 1501 1498 1498 1495 1494 1493 1492 1491 1490 1489 1488 1487 1487 1485 1484 1482 1480 1478 1476 1474 1472 1470 1468 1465 1464 1462 1461 1460 1459 1457 1456 1455 1455 1454 1454 1454 1454 1454 1454 1455 1455